| time (UTC) | temp F | wind direction | speed knots | gust knots | rain 1hr in | rain 24hr in | rain mn in | humidity % | barometer mb |
| 20260906203017 | 81 | 68 | 1.7 | 3.5 | 0.00 | 0.00 | 0.00 | 67 | 1021.3 |
| 20260906202017 | 80 | 68 | 3.5 | 6.1 | 0.00 | 0.00 | 0.00 | 70 | 1021.2 |
| 20260906201017 | 81 | 68 | 0.9 | 2.6 | 0.00 | 0.00 | 0.00 | 67 | 1021.3 |
| 20260906200017 | 81 | 68 | 1.7 | 2.6 | 0.00 | 0.00 | 0.00 | 71 | 1021.4 |
| 20260906195017 | 80 | 68 | 0.9 | 1.7 | 0.00 | 0.00 | 0.00 | 67 | 1021.3 |
| 20260906194017 | 80 | 45 | 0.9 | 3.5 | 0.00 | 0.00 | 0.00 | 68 | 1021.3 |
| 20260906193017 | 79 | 0.0 | 1.7 | 0.00 | 0.00 | 0.00 | 69 | 1021.3 | |
| 20260906192017 | 78 | 45 | 1.7 | 3.5 | 0.00 | 0.00 | 0.00 | 71 | 1021.3 |
| 20260906191017 | 78 | 68 | 1.7 | 3.5 | 0.00 | 0.00 | 0.00 | 70 | 1021.5 |
| 20260906190017 | 79 | 0.0 | 1.7 | 0.00 | 0.00 | 0.00 | 73 | 1021.7 | |
| 20260906185017 | 78 | 45 | 1.7 | 5.2 | 0.00 | 0.00 | 0.00 | 70 | 1021.8 |
| 20260906184017 | 78 | 45 | 0.9 | 2.6 | 0.00 | 0.00 | 0.00 | 72 | 1022.0 |
| 20260906183037 | 78 | 68 | 0.9 | 2.6 | 0.00 | 0.00 | 0.00 | 74 | 1022.1 |
| 20260906182017 | 78 | 0.0 | 0.0 | 0.00 | 0.00 | 0.00 | 74 | 1022.2 | |
| 20260906181017 | 76 | 68 | 1.7 | 3.5 | 0.00 | 0.00 | 0.00 | 73 | 1022.3 |
| 20260906180017 | 76 | 45 | 0.9 | 1.7 | 0.00 | 0.00 | 0.00 | 75 | 1022.4 |
| 20260906175017 | 76 | 45 | 1.7 | 3.5 | 0.00 | 0.00 | 0.00 | 77 | 1022.5 |
| 20260906174037 | 75 | 45 | 0.9 | 2.6 | 0.00 | 0.00 | 0.00 | 78 | 1022.5 |
| 20260906173017 | 74 | 68 | 0.9 | 2.6 | 0.00 | 0.00 | 0.00 | 78 | 1022.6 |
| 20260906172017 | 73 | 68 | 2.6 | 7.0 | 0.00 | 0.00 | 0.00 | 79 | 1022.5 |
| 20260906171017 | 74 | 68 | 2.6 | 7.8 | 0.00 | 0.00 | 0.00 | 79 | 1022.8 |
| 20260906170036 | 76 | 293 | 0.9 | 2.6 | 0.00 | 0.00 | 0.00 | 77 | 1023.0 |
| 20260906165016 | 76 | 68 | 0.9 | 2.6 | 0.00 | 0.00 | 0.00 | 74 | 1023.1 |
| 20260906164017 | 77 | 0.0 | 1.7 | 0.00 | 0.00 | 0.00 | 74 | 1023.2 | |
| 20260906163016 | 76 | 0.0 | 3.5 | 0.00 | 0.00 | 0.00 | 76 | 1023.2 | |
| 20260906162017 | 75 | 68 | 0.9 | 2.6 | 0.00 | 0.00 | 0.00 | 78 | 1023.2 |
| 20260906161017 | 75 | 270 | 0.9 | 2.6 | 0.00 | 0.00 | 0.00 | 76 | 1023.3 |
| 20260906160037 | 75 | 68 | 0.9 | 3.5 | 0.00 | 0.00 | 0.00 | 77 | 1023.3 |
| 20260906155017 | 74 | 293 | 0.9 | 4.3 | 0.00 | 0.00 | 0.00 | 75 | 1023.2 |
| 20260906154017 | 74 | 68 | 0.9 | 2.6 | 0.00 | 0.00 | 0.00 | 76 | 1023.2 |
| 20260906153017 | 73 | 135 | 0.9 | 2.6 | 0.00 | 0.00 | 0.00 | 75 | 1023.3 |
| 20260906152017 | 73 | 135 | 0.9 | 2.6 | 0.00 | 0.00 | 0.00 | 75 | 1023.3 |
| 20260906151016 | 72 | 158 | 0.9 | 4.3 | 0.00 | 0.00 | 0.00 | 77 | 1023.3 |
| 20260906150016 | 71 | 0.0 | 2.6 | 0.00 | 0.00 | 0.00 | 77 | 1023.1 | |
| 20260906145016 | 71 | 158 | 0.9 | 3.5 | 0.00 | 0.00 | 0.00 | 78 | 1023.2 |
| 20260906144016 | 70 | 135 | 0.9 | 3.5 | 0.00 | 0.00 | 0.00 | 79 | 1023.1 |
| 20260906143017 | 69 | 113 | 0.9 | 3.5 | 0.00 | 0.00 | 0.00 | 80 | 1023.1 |
| 20260906142016 | 68 | 68 | 0.9 | 1.7 | 0.00 | 0.00 | 0.00 | 81 | 1022.9 |
| 20260906141016 | 68 | 0.0 | 1.7 | 0.00 | 0.00 | 0.00 | 80 | 1023.1 | |
| 20260906140016 | 68 | 180 | 0.9 | 3.5 | 0.00 | 0.00 | 0.00 | 79 | 1023.4 |
| 20260906135016 | 67 | 180 | 0.9 | 3.5 | 0.00 | 0.00 | 0.00 | 80 | 1023.3 |
| 20260906134036 | 67 | 0.0 | 1.7 | 0.00 | 0.00 | 0.00 | 82 | 1023.5 | |
| 20260906133016 | 66 | 0.0 | 1.7 | 0.00 | 0.00 | 0.00 | 82 | 1023.3 | |
| 20260906132016 | 65 | 0.0 | 2.6 | 0.00 | 0.00 | 0.00 | 82 | 1023.3 | |
| 20260906131036 | 64 | 0.0 | 1.7 | 0.00 | 0.00 | 0.00 | 84 | 1023.2 | |
| 20260906130016 | 63 | 0.0 | 2.6 | 0.00 | 0.00 | 0.00 | 85 | 1023.2 | |
| 20260906125016 | 62 | 0.0 | 0.0 | 0.00 | 0.00 | 0.00 | 88 | 1023.2 | |
| 20260906124016 | 62 | 0.0 | 0.9 | 0.00 | 0.00 | 0.00 | 88 | 1023.3 | |
| 20260906123016 | 62 | 0.0 | 0.0 | 0.00 | 0.00 | 0.00 | 88 | 1023.1 | |
| 20260906122016 | 62 | 0.0 | 0.9 | 0.00 | 0.00 | 0.00 | 88 | 1023.2 | |
| 20260906121016 | 61 | 0.0 | 1.7 | 0.00 | 0.00 | 0.00 | 90 | 1023.1 | |
| 20260906120016 | 61 | 0.0 | 0.0 | 0.00 | 0.00 | 0.00 | 91 | 1023.1 | |
| 20260906115016 | 59 | 0.0 | 0.0 | 0.00 | 0.00 | 0.00 | 93 | 1022.7 | |
| 20260906114016 | 58 | 0.0 | 1.7 | 0.00 | 0.00 | 0.00 | 94 | 1022.5 | |
| 20260906113016 | 58 | 90 | 0.9 | 1.7 | 0.00 | 0.00 | 0.00 | 96 | 1022.4 |
| 20260906112016 | 57 | 0.0 | 0.0 | 0.00 | 0.00 | 0.00 | 96 | 1022.3 | |
| 20260906111016 | 56 | 0.0 | 0.0 | 0.00 | 0.00 | 0.00 | 95 | 1022.4 | |
| 20260906110016 | 56 | 0.0 | 0.0 | 0.00 | 0.00 | 0.00 | 95 | 1022.1 | |
| 20260906105036 | 57 | 0.0 | 0.0 | 0.00 | 0.00 | 0.00 | 94 | 1021.9 | |
| 20260906104016 | 57 | 0.0 | 0.0 | 0.00 | 0.00 | 0.00 | 94 | 1021.7 | |
| 20260906103016 | 57 | 0.0 | 0.0 | 0.00 | 0.00 | 0.00 | 95 | 1021.7 | |
| 20260906102016 | 57 | 0.0 | 0.0 | 0.00 | 0.00 | 0.00 | 95 | 1021.7 | |
| 20260906101016 | 57 | 0.0 | 0.0 | 0.00 | 0.00 | 0.00 | 94 | 1021.7 | |
| 20260906100016 | 58 | 0.0 | 0.0 | 0.00 | 0.00 | 0.00 | 93 | 1021.7 | |
| 20260906095016 | 59 | 68 | 0.9 | 1.7 | 0.00 | 0.00 | 0.00 | 93 | 1021.8 |
| 20260906094036 | 59 | 68 | 1.7 | 3.5 | 0.00 | 0.00 | 0.00 | 94 | 1021.7 |
| 20260906093056 | 59 | 68 | 1.7 | 2.6 | 0.00 | 0.00 | 0.00 | 93 | 1021.8 |
| 20260906092036 | 58 | 0.0 | 0.0 | 0.00 | 0.00 | 0.00 | 95 | 1021.7 | |
| 20260906091016 | 58 | 0.0 | 0.0 | 0.00 | 0.00 | 0.00 | 96 | 1021.7 | |
| 20260906090015 | 58 | 0.0 | 0.0 | 0.00 | 0.00 | 0.00 | 96 | 1021.7 | |
| 20260906085016 | 57 | 0.0 | 0.0 | 0.00 | 0.00 | 0.00 | 96 | 1021.7 | |
| 20260906084036 | 57 | 0.0 | 0.0 | 0.00 | 0.00 | 0.00 | 96 | 1021.8 | |
| 20260906083036 | 57 | 0.0 | 0.0 | 0.00 | 0.00 | 0.00 | 96 | 1022.0 | |
| 20260906082016 | 57 | 0.0 | 0.0 | 0.00 | 0.00 | 0.00 | 96 | 1022.0 | |
| 20260906081058 | 57 | 0.0 | 0.0 | 0.00 | 0.00 | 0.00 | 96 | 1022.0 | |
| 20260906080016 | 56 | 0.0 | 0.0 | 0.00 | 0.00 | 0.00 | 95 | 1022.1 | |
| 20260906075015 | 56 | 0.0 | 0.0 | 0.00 | 0.00 | 0.00 | 95 | 1022.2 | |
| 20260906074016 | 57 | 0.0 | 0.0 | 0.00 | 0.00 | 0.00 | 94 | 1022.3 | |
| 20260906073015 | 57 | 0.0 | 0.0 | 0.00 | 0.00 | 0.00 | 94 | 1022.2 | |
| 20260906072016 | 57 | 0.0 | 0.0 | 0.00 | 0.00 | 0.00 | 94 | 1022.3 | |
| 20260906071036 | 58 | 0.0 | 0.0 | 0.00 | 0.00 | 0.00 | 94 | 1022.5 | |
| 20260906070016 | 58 | 0.0 | 0.0 | 0.00 | 0.00 | 0.00 | 93 | 1022.4 | |
| 20260906065016 | 58 | 0.0 | 0.0 | 0.00 | 0.00 | 0.00 | 94 | 1022.7 | |
| 20260906064036 | 58 | 0.0 | 0.0 | 0.00 | 0.00 | 0.00 | 93 | 1022.7 | |
| 20260906063016 | 58 | 0.0 | 0.0 | 0.00 | 0.00 | 0.00 | 93 | 1022.7 | |
| 20260906062015 | 58 | 0.0 | 0.0 | 0.00 | 0.00 | 0.00 | 92 | 1022.6 | |
| 20260906061035 | 59 | 0.0 | 0.0 | 0.00 | 0.00 | 0.00 | 91 | 1022.6 | |
| 20260906060035 | 59 | 0.0 | 0.0 | 0.00 | 0.00 | 0.00 | 91 | 1022.7 | |
| 20260906055015 | 59 | 0.0 | 0.9 | 0.00 | 0.00 | 0.00 | 91 | 1022.6 | |
| 20260906054035 | 60 | 0.0 | 0.0 | 0.00 | 0.00 | 0.00 | 90 | 1022.6 | |
| 20260906053036 | 60 | 135 | 0.9 | 1.7 | 0.00 | 0.00 | 0.00 | 91 | 1022.4 |
| 20260906052035 | 60 | 135 | 0.9 | 2.6 | 0.00 | 0.00 | 0.00 | 91 | 1022.2 |
| 20260906051035 | 60 | 113 | 0.9 | 1.7 | 0.00 | 0.00 | 0.00 | 91 | 1022.1 |
| 20260906050017 | 60 | 135 | 0.9 | 3.5 | 0.00 | 0.00 | 0.00 | 92 | 1022.1 |
| 20260906045036 | 60 | 0.0 | 1.7 | 0.00 | 0.00 | 0.00 | 92 | 1022.2 | |
| 20260906044016 | 60 | 0.0 | 1.7 | 0.00 | 0.00 | 0.00 | 92 | 1022.1 | |
| 20260906043036 | 60 | 0.0 | 0.9 | 0.00 | 0.00 | 0.00 | 92 | 1021.8 | |
| 20260906042016 | 61 | 0.0 | 1.7 | 0.00 | 0.00 | 0.00 | 91 | 1021.8 | |
| 20260906041036 | 61 | 0.0 | 1.7 | 0.00 | 0.00 | 0.00 | 91 | 1021.8 | |
| 20260906040016 | 61 | 0.0 | 2.6 | 0.00 | 0.00 | 0.00 | 92 | 1021.7 | |
| 20260906035036 | 61 | 135 | 0.9 | 3.5 | 0.00 | 0.00 | 0.00 | 92 | 1021.7 |
| 20260906034016 | 62 | 135 | 0.9 | 2.6 | 0.00 | 0.00 | 0.00 | 93 | 1021.7 |
| 20260906033016 | 62 | 0.0 | 1.7 | 0.00 | 0.00 | 0.00 | 93 | 1021.9 | |
| 20260906032035 | 62 | 113 | 0.9 | 4.3 | 0.00 | 0.00 | 0.00 | 94 | 1021.9 |
| 20260906031036 | 63 | 0.0 | 0.0 | 0.00 | 0.00 | 0.00 | 93 | 1022.0 | |
| 20260906030016 | 63 | 0.0 | 0.9 | 0.00 | 0.00 | 0.00 | 93 | 1021.9 | |
| 20260906025035 | 64 | 0.0 | 0.9 | 0.00 | 0.00 | 0.00 | 93 | 1021.8 | |
| 20260906024036 | 64 | 158 | 0.9 | 3.5 | 0.00 | 0.00 | 0.00 | 92 | 1021.6 |
| 20260906023015 | 64 | 158 | 0.9 | 5.2 | 0.00 | 0.00 | 0.00 | 92 | 1021.4 |
| 20260906022056 | 64 | 0.0 | 3.5 | 0.00 | 0.00 | 0.00 | 92 | 1021.3 | |
| 20260906021036 | 65 | 158 | 0.9 | 4.3 | 0.00 | 0.00 | 0.00 | 92 | 1021.3 |
| 20260906020015 | 65 | 135 | 0.9 | 3.5 | 0.00 | 0.00 | 0.00 | 91 | 1021.2 |
| 20260906015015 | 66 | 0.0 | 2.6 | 0.00 | 0.00 | 0.00 | 91 | 1021.1 | |
| 20260906014035 | 66 | 135 | 0.9 | 4.3 | 0.00 | 0.00 | 0.00 | 90 | 1020.9 |
| 20260906013036 | 67 | 0.0 | 0.0 | 0.00 | 0.00 | 0.00 | 90 | 1021.1 | |
| 20260906012035 | 67 | 0.0 | 0.0 | 0.00 | 0.00 | 0.00 | 89 | 1020.9 | |
| 20260906011036 | 67 | 0.0 | 0.0 | 0.00 | 0.00 | 0.00 | 88 | 1020.8 | |
| 20260906010056 | 68 | 0.0 | 0.0 | 0.00 | 0.00 | 0.00 | 87 | 1020.7 | |
| 20260906005035 | 68 | 0.0 | 0.0 | 0.00 | 0.00 | 0.00 | 86 | 1020.6 | |
| 20260906004035 | 69 | 0.0 | 1.7 | 0.00 | 0.00 | 0.00 | 85 | 1020.5 | |
| 20260906003015 | 70 | 0.0 | 0.0 | 0.00 | 0.00 | 0.00 | 83 | 1020.4 | |
| 20260906002018 | 70 | 0.0 | 1.7 | 0.00 | 0.00 | 0.00 | 82 | 1020.4 | |
| 20260906001017 | 71 | 158 | 0.9 | 1.7 | 0.00 | 0.00 | 0.00 | 81 | 1020.5 |
| 20260906000017 | 72 | 135 | 0.9 | 2.6 | 0.00 | 0.00 | 0.00 | 79 | 1020.5 |
| 20260905235017 | 73 | 0.0 | 2.6 | 0.00 | 0.00 | 0.00 | 79 | 1020.7 | |
| 20260905234017 | 72 | 158 | 0.9 | 1.7 | 0.00 | 0.00 | 0.00 | 80 | 1020.8 |
| 20260905233017 | 72 | 135 | 0.9 | 3.5 | 0.00 | 0.00 | 0.00 | 80 | 1020.7 |
| 20260905232017 | 72 | 0.0 | 2.6 | 0.00 | 0.00 | 0.00 | 80 | 1020.8 | |
| 20260905231035 | 72 | 135 | 0.9 | 1.7 | 0.00 | 0.00 | 0.00 | 79 | 1020.9 |
| 20260905230017 | 73 | 135 | 0.9 | 3.5 | 0.00 | 0.00 | 0.00 | 78 | 1020.9 |
| 20260905225017 | 72 | 135 | 0.9 | 2.6 | 0.00 | 0.00 | 0.00 | 80 | 1021.0 |
| 20260905224017 | 72 | 135 | 0.9 | 2.6 | 0.00 | 0.00 | 0.00 | 80 | 1020.8 |
| 20260905223017 | 73 | 135 | 0.9 | 3.5 | 0.00 | 0.00 | 0.00 | 79 | 1020.7 |
| 20260905222017 | 73 | 0.0 | 0.9 | 0.00 | 0.00 | 0.00 | 79 | 1021.0 | |
| 20260905221017 | 73 | 0.0 | 0.9 | 0.00 | 0.00 | 0.00 | 77 | 1021.1 | |
| 20260905220017 | 73 | 0.0 | 1.7 | 0.00 | 0.00 | 0.00 | 77 | 1021.3 | |
| 20260905215017 | 73 | 0.0 | 2.6 | 0.00 | 0.00 | 0.00 | 76 | 1021.3 | |
| 20260905214017 | 74 | 270 | 0.9 | 2.6 | 0.00 | 0.00 | 0.00 | 76 | 1021.6 |
| 20260905213017 | 74 | 293 | 0.9 | 1.7 | 0.00 | 0.00 | 0.00 | 78 | 1021.6 |
| 20260905212017 | 74 | 0.0 | 1.7 | 0.00 | 0.00 | 0.00 | 77 | 1021.8 | |
| 20260905211037 | 73 | 0.0 | 1.7 | 0.00 | 0.00 | 0.00 | 78 | 1021.7 | |
| 20260905210017 | 72 | 293 | 0.9 | 2.6 | 0.00 | 0.00 | 0.00 | 79 | 1021.9 |
| 20260905205017 | 73 | 270 | 0.9 | 3.5 | 0.00 | 0.00 | 0.00 | 80 | 1021.9 |
| 20260905204017 | 72 | 270 | 1.7 | 3.5 | 0.00 | 0.00 | 0.00 | 80 | 1021.9 |